Regional & State Weather Roundups


285 
ASUS41 KLWX 281910
RWRLWX
REGIONAL WEATHER ROUNDUP
NATIONAL WEATHER SERVICE BALTIMORE MD/WASHINGTON DC
200 PM EST SAT FEB 28 2015
Note: "FAIR" indicates few or no clouds below 12,000 feet
with no significant weather and/or obstructions to visibility.
 TC=TEMPERATURE CELSIUS
 * =Non NWS site. Station does not report precipitation (e.g. rain,
    snow, etc.), thunder, or fog.
DCZ001-MDZ009-015-VAZ040>042-051-053>054-282000-
WASHINGTON METRO
  
CITY           SKY/WX    TMP DP  RH WIND       PRES   REMARKS
WASHINGTON NAT PTSUNNY   29   1  30 E3        30.80F                  
DULLES         PTSUNNY   25  -3  29 W5        30.79F                  
ANDREWS AFB    MOSUNNY   29   1  29 SW2       30.77F                  
FT BELVOIR     FAIR      31  -1  25 VRB1      30.80F                  
QUANTICO       MOSUNNY   27   3  35 SE3       30.82F                  
COLLEGE PARK*  SUNNY     30   0  27 CALM      30.79F                  
LEESBURG*      SUNNY     28   3  34 NW5       30.78F                  
MANASSAS*      SUNNY     27   0  31 CALM      30.80F                  
GAITHERSBURG*  SUNNY     25  -2  30 CALM      30.79F                  
$$
MDZ006>007-011-014-282000-
BALTIMORE METRO
  
CITY           SKY/WX    TMP DP  RH WIND       PRES   REMARKS
BWI AIRPORT    PTSUNNY   28  -2  27 CALM      30.77F                  
MD SCIENCE CTR   N/A     30  -1  26 MISG      30.82F                  
MARTIN STATE   MOSUNNY   25   9  50 SE10      30.82F WCI  15          
ANNAPOLIS      MOSUNNY   24   5  44 E7        30.81F                  
FORT MEADE*    SUNNY     28   0  29 CALM      30.80F                  
$$
MDZ012-015-019>023-282000-
MARYLAND EASTERN SHORE
  
CITY           SKY/WX    TMP DP  RH WIND       PRES   REMARKS
OCEAN CITY     MOSUNNY   27  12  53 E12       30.80F WCI  17          
SALISBURY      PTSUNNY   31   8  38 CALM      30.79F                  
BAY BRIDGE AP*   N/A     28   1  31 E5        30.81                   
CAMBRIDGE*     PTSUNNY   30  10  43 NW3       30.80F                  
EASTON*        MOSUNNY   28   9  43 N6        30.84F                  
$$
MDZ017>025-282000-
SOUTHERN MARYLAND
  
CITY           SKY/WX    TMP DP  RH WIND       PRES   REMARKS
PATUXENT RIVER CLOUDY    25   6  44 NE3       30.81F                  
ST INIGOES     PTSUNNY   27   6  41 N3        30.80F                  
LEONARDTOWN*   PTSUNNY   28   9  43 CALM      30.82F                  
$$
MDZ003>005-282000-
NORTH CENTRAL MARYLAND
  
CITY           SKY/WX    TMP DP  RH WIND       PRES   REMARKS
FREDERICK*     SUNNY     28 -15  14 CALM      30.80F                  
HAGERSTOWN APT SUNNY     27  -3  27 VRB3      30.74F                  
WESTMINSTER*   SUNNY     23  -6  28 CALM      30.73F                  
$$
MDZ501>502-282000-
WESTERN MARYLAND
  
CITY           SKY/WX    TMP DP  RH WIND       PRES   REMARKS
OAKLAND*       SUNNY     23  -9  23 SE7       30.51F                  
CUMBERLAND*    SUNNY     32   5  32 S6        30.74F                  
$$
VAZ025>031-282000-
SHENANDOAH VALLEY
  
CITY           SKY/WX    TMP DP  RH WIND       PRES   REMARKS
WINCHESTER*    SUNNY     32  -4  21 CALM      30.74F                  
FRONT ROYAL*   FAIR      27   5  39 CALM      30.73F                  
LURAY*         FAIR      32  12  43 CALM      30.69F                  
NEW MARKET*    FAIR      27   8  44 S3        30.69F                  
STAUNTON*      MOSUNNY   27   8  44 S7        30.70F                  
WAYNESBORO*    FAIR      25   8  47 N3        30.66F                  
$$
WVZ021-048>050-054>055-282000-
EASTERN WEST VIRGINIA PANHANDLE
  
CITY           SKY/WX    TMP DP  RH WIND       PRES   REMARKS
MARTINSBURG    SUNNY     29   2  31 E5        30.75F                  
PETERSBURG*    NOT AVBL                                               
$$
VAZ036>039-050-282000-
CENTRAL FOOTHILLS
  
CITY           SKY/WX    TMP DP  RH WIND       PRES   REMARKS
CHARLOTTESVILL MOSUNNY   29   5  36 CALM      30.74F                  
CULPEPER*      SUNNY     28   1  31 E3        30.78F                  
ORANGE*        MOSUNNY   28   5  37 CALM      30.77F                  
GORDONSVILLE*  FAIR      27   5  39 CALM      30.75F                  
WARRENTON*     FAIR      30   8  39 CALM      30.77F                  
$$
VAZ055>057-282000-
NORTH AND CENTRAL PIEDMONT
  
CITY           SKY/WX    TMP DP  RH WIND       PRES   REMARKS
FREDERICKSBRG* MOSUNNY   32   4  30 S3        30.79F                  
STAFFORD*      MOSUNNY   29  -2  26 CALM      30.82F                  
$$
NCZ024-NYZ072-PAZ021-071-VAZ022-071-282000-
OTHER REGIONAL OBSERVATIONS
  
CITY           SKY/WX    TMP DP  RH WIND       PRES   REMARKS
NEW YORK CITY  SUNNY     25  -1  32 CALM      30.78F                  
PHILADELPHIA   MOSUNNY   28  -5  23 W3        30.79F                  
PITTSBURGH     MOSUNNY   23   0  36 E6        30.67F                  
ROANOKE        PTSUNNY   28  10  46 E7        30.70F                  
RICHMOND       PTSUNNY   33   6  32 N3        30.78F                  
RALEIGH        PTSUNNY   34  11  38 N6        30.72F                  
$$
ANZ530>537-282000-
MARINE OBSERVATIONS
  
STATION/POSITION TIME  TEMP    WIND        PRES
                       AIR SEA DIR/SP/G
                 (UTC) (F)     (DEG/KT/KT) (MB)
THOMAS PT LIGHT  1900   23 31   70/  4/  4 1043.9F
BALT KEY BRIDGE  1800   25      CALM  /  2 1044.2F
COVE POINT       1800   21      20/  7/  8 1044.1F
LEWISETTA        1800   24 32     CALM     1043.8F
SOLOMONS ISLAND  1818      33                N/A
$$